DW7364 Weather Reports


Display with metric or nautical units.
time (UTC)temp
F
wind
direction
speed
MPH
gust
MPH
rain 1hr
in
rain 24hr
in
rain mn
in
humidity
%
barometer
mb
20260510163934 78 24 3.0 4.0 0.00 0.00 0.00 55 1012.1
20260510163440 77 199 0.0 4.0 0.00 0.00 0.00 59 1012.1
20260510162937 74 320 6.0 10.0 0.00 0.00 0.00 60 1012.1
20260510162435 76 304 10.0 7.0 0.00 0.00 0.00 61 1012.1
20260510161937 74 314 9.0 9.0 0.00 0.00 0.00 60 1012.1
20260510161434 74 208 0.0 6.0 0.00 0.00 0.00 63 1012.1
20260510160937 72 236 0.0 7.0 0.00 0.00 0.00 66 1012.2
20260510160437 73 324 4.0 6.0 0.00 0.00 0.00 64 1012.3
20260510155940 74 201 3.0 4.0 0.00 0.00 0.00 63 1012.3
20260510155434 74 286 0.0 6.0 0.00 0.00 0.00 68 1012.3
20260510154934 72 290 3.0 6.0 0.00 0.00 0.00 66 1012.4
20260510154437 72 285 9.0 8.0 0.00 0.00 0.00 67 1012.5
20260510153940 70 131 3.0 6.0 0.00 0.00 0.00 69 1012.6
20260510153440 71 163 7.0 6.0 0.00 0.00 0.00 67 1012.5
20260510152943 71 221 0.0 4.0 0.00 0.00 0.00 71 1012.5
20260510152437 70 156 1.0 5.0 0.00 0.00 0.00 71 1012.6
20260510151937 71 171 3.0 2.0 0.00 0.00 0.00 71 1012.7
20260510151440 70 198 0.0 3.0 0.00 0.00 0.00 72 1012.7
20260510150934 68 201 1.0 4.0 0.00 0.00 0.00 77 1012.6
20260510150434 64 257 0.0 6.0 0.00 0.00 0.00 81 1012.7
20260510145937 65 290 7.0 6.0 0.00 0.00 0.00 75 1012.6
20260510145438 68 233 0.0 6.0 0.00 0.00 0.00 75 1012.7
20260510144937 67 259 0.0 3.0 0.00 0.00 0.00 74 1012.6
20260510144434 65 165 1.0 3.0 0.00 0.00 0.00 82 1012.7
20260510143935 65 164 0.0 5.0 0.00 0.00 0.00 79 1012.6
20260510143434 65 211 0.0 2.0 0.00 0.00 0.00 80 1012.7
20260510142937 64 195 1.0 4.0 0.00 0.00 0.00 84 1012.8
20260510142435 60 273 1.0 2.0 0.00 0.00 0.00 87 1012.7
20260510141934 61 248 1.0 2.0 0.00 0.00 0.00 86 1012.7
20260510141437 60 280 1.0 1.0 0.00 0.00 0.00 85 1012.7
20260510140935 61 280 0.0 2.0 0.00 0.00 0.00 89 1012.7
20260510140440 60 281 0.0 2.0 0.00 0.00 0.00 90 1012.6
20260510135934 59 344 0.0 1.0 0.00 0.00 0.00 93 1012.6
20260510135435 58 311 0.0 3.0 0.00 0.00 0.00 93 1012.6
20260510134937 57 128 0.0 2.0 0.00 0.00 0.00 94 1012.6
20260510134440 56 20 0.0 3.0 0.00 0.00 0.00 94 1012.4
20260510133934 56 335 4.0 5.0 0.00 0.00 0.00 94 1012.4
20260510133434 56 17 3.0 2.0 0.00 0.00 0.00 95 1012.5
20260510132934 56 13 0.0 2.0 0.00 0.00 0.00 94 1012.6
20260510132434 57 63 0.0 2.0 0.00 0.00 0.00 96 1012.7
20260510131940 56 113 0.0 1.0 0.00 0.00 0.00 96 1012.7
20260510131437 56 340 0.0 2.0 0.00 0.00 0.00 96 1012.6
20260510130934 55 338 0.0 1.0 0.00 0.00 0.00 96 1012.6
20260510130434 55 291 0.0 3.0 0.00 0.00 0.00 96 1012.6
20260510125934 55 301 0.0 3.0 0.00 0.00 0.00 96 1012.6
20260510125434 55 312 1.0 3.0 0.00 0.00 0.00 96 1012.5
20260510124937 54 173 1.0 2.0 0.00 0.00 0.00 96 1012.3
20260510124434 54 181 1.0 1.0 0.00 0.00 0.00 96 1012.3
20260510123938 54 186 0.0 1.0 0.00 0.00 0.00 96 1012.2
20260510123440 54 298 0.0 2.0 0.00 0.00 0.00 96 1012.2
20260510122937 54 317 3.0 2.0 0.00 0.00 0.00 96 1012.0
20260510122440 54 137 1.0 2.0 0.00 0.00 0.00 96 1011.9
20260510121937 54 355 0.0 2.0 0.00 0.00 0.00 96 1012.1
20260510121437 53 340 1.0 2.0 0.00 0.00 0.00 96 1012.3
20260510120937 53 14 0.0 1.0 0.00 0.00 0.00 96 1012.1
20260510120434 53 5 1.0 2.0 0.00 0.00 0.00 96 1012.1
20260510115934 53 320 0.0 2.0 0.00 0.00 0.00 96 1012.1
20260510115443 53 323 1.0 2.0 0.00 0.00 0.00 96 1011.8
20260510114934 53 59 0.0 2.0 0.00 0.00 0.00 96 1011.8
20260510114438 53 59 1.0 2.0 0.00 0.00 0.00 96 1011.6
20260510113934 53 15 0.0 4.0 0.00 0.00 0.00 96 1011.8
20260510113435 53 12 0.0 2.0 0.00 0.00 0.00 96 1011.7
20260510112934 53 28 0.0 1.0 0.00 0.00 0.00 96 1011.9
20260510112434 52 334 0.0 4.0 0.00 0.00 0.00 96 1011.8
20260510111934 52 355 0.0 3.0 0.00 0.00 0.00 96 1011.7
20260510111437 52 349 0.0 4.0 0.00 0.00 0.00 96 1011.7
20260510110934 52 310 3.0 4.0 0.00 0.00 0.00 96 1011.6
20260510110437 52 0 0.0 3.0 0.00 0.00 0.00 96 1011.5
20260510105934 52 74 0.0 0.0 0.00 0.00 0.00 96 1011.3
20260510105434 52 329 0.0 1.0 0.00 0.00 0.00 96 1011.4
20260510104940 51 53 0.0 2.0 0.00 0.00 0.00 96 1011.3
20260510104434 51 49 1.0 2.0 0.00 0.00 0.00 96 1011.2
20260510103937 51 246 0.0 2.0 0.00 0.00 0.00 96 1011.3
20260510103435 51 284 0.0 2.0 0.00 0.00 0.00 96 1011.4
20260510102937 51 285 0.0 2.0 0.00 0.00 0.00 96 1011.2
20260510102440 51 319 0.0 4.0 0.00 0.00 0.00 96 1011.0
20260510101940 51 36 3.0 3.0 0.00 0.00 0.00 96 1011.0
20260510101437 51 126 3.0 3.0 0.00 0.00 0.00 96 1011.1
20260510100937 51 328 0.0 3.0 0.00 0.00 0.00 96 1011.0
20260510100437 51 44 1.0 3.0 0.00 0.00 0.00 96 1011.0
20260510095943 51 355 0.0 3.0 0.00 0.00 0.00 96 1011.1
20260510095437 51 32 1.0 3.0 0.00 0.00 0.00 96 1011.1
20260510094937 51 46 1.0 3.0 0.00 0.00 0.00 96 1011.1
20260510094434 51 34 3.0 4.0 0.00 0.00 0.00 96 1011.0
20260510093937 51 0 1.0 3.0 0.00 0.00 0.00 96 1011.0
20260510093443 51 56 0.0 3.0 0.00 0.00 0.00 96 1011.0
20260510092943 51 325 1.0 3.0 0.00 0.00 0.00 96 1011.2
20260510092434 51 320 3.0 3.0 0.00 0.00 0.00 96 1011.0
20260510091934 50 28 1.0 4.0 0.00 0.00 0.00 96 1011.0
20260510091437 50 301 1.0 3.0 0.00 0.00 0.00 96 1011.0
20260510090937 50 55 3.0 6.0 0.00 0.00 0.00 96 1011.1
20260510090440 50 140 0.0 5.0 0.00 0.00 0.00 96 1010.7
20260510085934 50 338 4.0 8.0 0.00 0.00 0.00 96 1011.0
20260510085434 50 262 0.0 8.0 0.00 0.00 0.00 96 1011.0
20260510084937 50 238 1.0 4.0 0.00 0.00 0.00 96 1010.5
20260510084437 49 315 1.0 4.0 0.00 0.00 0.00 95 1010.7
20260510083934 49 350 0.0 0.0 0.00 0.00 0.00 96 1010.3
20260510083437 49 317 0.0 0.0 0.00 0.00 0.00 96 1010.3
20260510082934 49 308 0.0 0.0 0.00 0.00 0.00 96 1010.4
20260510082434 49 312 0.0 0.0 0.00 0.00 0.00 96 1010.3
20260510081934 49 27 0.0 0.0 0.00 0.00 0.00 96 1010.3
20260510081437 49 27 0.0 1.0 0.00 0.00 0.00 95 1010.4
20260510080938 49 27 0.0 0.0 0.00 0.00 0.00 95 1010.3
20260510080434 50 27 0.0 1.0 0.00 0.00 0.00 95 1010.3
20260510075935 49 27 0.0 1.0 0.00 0.00 0.00 96 1010.3
20260510075434 49 27 0.0 0.0 0.00 0.00 0.00 95 1010.2
20260510074934 49 27 0.0 0.0 0.00 0.00 0.00 95 1010.2
20260510074437 49 27 0.0 0.0 0.00 0.00 0.00 95 1010.2
20260510073937 49 27 0.0 0.0 0.00 0.00 0.00 95 1010.2
20260510073440 49 27 0.0 0.0 0.00 0.00 0.00 95 1010.2
20260510072937 49 27 0.0 0.0 0.00 0.00 0.00 95 1010.2
20260510072434 49 27 0.0 0.0 0.00 0.00 0.00 95 1010.1
20260510071934 49 27 0.0 1.0 0.00 0.00 0.00 95 1010.1
20260510071438 49 27 0.0 2.0 0.00 0.00 0.00 95 1010.1
20260510070937 49 336 0.0 1.0 0.00 0.00 0.00 95 1010.1
20260510070434 49 323 0.0 2.0 0.00 0.00 0.00 95 1010.0
20260510065940 49 318 0.0 3.0 0.00 0.00 0.00 95 1009.9
20260510065437 50 63 0.0 1.0 0.00 0.00 0.00 95 1009.7
20260510064940 50 63 0.0 0.0 0.00 0.00 0.00 95 1009.6
20260510064437 50 63 0.0 1.0 0.00 0.00 0.00 95 1009.6
20260510063935 50 63 0.0 1.0 0.00 0.00 0.00 95 1009.7
20260510063434 50 63 0.0 1.0 0.00 0.00 0.00 95 1009.6
20260510062934 50 63 0.0 0.0 0.00 0.00 0.00 95 1009.8
20260510062437 50 63 0.0 1.0 0.00 0.00 0.00 95 1009.8
20260510061937 50 63 0.0 1.0 0.00 0.00 0.00 95 1009.8
20260510061434 50 63 0.0 1.0 0.00 0.00 0.00 95 1009.8
20260510060934 50 63 0.0 1.0 0.00 0.00 0.00 95 1009.9
20260510060434 50 63 0.0 1.0 0.00 0.00 0.00 95 1010.0
20260510055934 50 63 0.0 0.0 0.00 0.00 0.00 95 1009.9
20260510055434 50 63 0.0 0.0 0.00 0.00 0.00 95 1010.0
20260510054934 50 63 0.0 0.0 0.00 0.00 0.00 95 1010.1
20260510054437 50 63 0.0 0.0 0.00 0.00 0.00 95 1010.1
20260510053935 50 63 0.0 0.0 0.00 0.00 0.00 95 1010.1
20260510053438 50 63 0.0 0.0 0.00 0.00 0.00 95 1010.2
20260510052934 50 63 0.0 0.0 0.00 0.00 0.00 95 1010.1
20260510052437 50 63 0.0 0.0 0.00 0.00 0.00 95 1010.1
20260510051934 50 63 0.0 0.0 0.00 0.00 0.00 95 1010.2
20260510051434 50 63 0.0 0.0 0.00 0.00 0.00 95 1010.2
20260510050934 50 63 0.0 0.0 0.00 0.00 0.00 95 1010.3
20260510050437 51 63 0.0 1.0 0.00 0.00 0.00 95 1010.3
20260510045937 51 63 0.0 0.0 0.00 0.00 0.00 95 1010.3
20260510045434 51 63 0.0 0.0 0.00 0.00 0.00 95 1010.4
20260510044934 51 63 0.0 0.0 0.00 0.00 0.00 95 1010.4
20260510044440 51 63 0.0 0.0 0.00 0.00 0.00 95 1010.4
20260510043937 51 63 0.0 1.0 0.00 0.00 0.00 95 1010.5
20260510043434 51 63 0.0 0.0 0.00 0.00 0.00 95 1010.6
20260510042934 51 63 0.0 0.0 0.00 0.00 0.00 95 1010.5
20260510042434 51 63 0.0 0.0 0.00 0.00 0.00 95 1010.6
20260510041938 51 63 0.0 0.0 0.00 0.00 0.00 95 1010.6
20260510041434 51 63 0.0 0.0 0.00 0.00 0.00 95 1010.6
20260510040937 51 63 0.0 0.0 0.00 0.00 0.00 95 1010.5
20260510040437 51 63 0.0 0.0 0.00 0.00 0.00 95 1010.5
20260510035937 51 63 0.0 0.0 0.00 0.00 0.00 94 1010.5
20260510035434 51 63 0.0 0.0 0.00 0.00 0.00 95 1010.5
20260510034943 51 63 0.0 0.0 0.00 0.00 0.00 95 1010.3
20260510034437 51 63 0.0 0.0 0.00 0.00 0.00 94 1010.3
20260510033934 51 63 0.0 0.0 0.00 0.00 0.00 94 1010.3
20260510033434 51 63 0.0 0.0 0.00 0.00 0.00 94 1010.2
20260510032940 51 63 0.0 0.0 0.00 0.00 0.00 94 1010.2
20260510032437 51 63 0.0 0.0 0.00 0.00 0.00 94 1010.2
20260510031937 51 63 0.0 0.0 0.00 0.00 0.00 94 1010.1
20260510031434 51 63 0.0 0.0 0.00 0.00 0.00 94 1010.1
20260510030943 51 63 0.0 0.0 0.00 0.00 0.00 94 1010.1
20260510030437 51 63 0.0 0.0 0.00 0.00 0.00 94 1010.1
20260510025934 51 63 0.0 0.0 0.00 0.00 0.00 94 1010.2
20260510025437 51 63 0.0 0.0 0.00 0.00 0.00 94 1010.2
20260510024937 52 63 0.0 0.0 0.00 0.00 0.00 94 1010.1
20260510024434 52 63 0.0 0.0 0.00 0.00 0.00 94 1010.1
20260510023937 52 63 0.0 0.0 0.00 0.00 0.00 94 1010.1
20260510023434 52 63 0.0 0.0 0.00 0.00 0.00 94 1010.1
20260510022934 52 63 0.0 0.0 0.00 0.00 0.00 94 1010.1
20260510022437 52 63 0.0 0.0 0.00 0.00 0.00 94 1010.0
20260510021934 52 63 0.0 0.0 0.00 0.00 0.00 94 1010.0
20260510021440 52 63 0.0 0.0 0.00 0.00 0.00 94 1010.0
20260510020935 52 63 0.0 0.0 0.00 0.00 0.00 94 1010.0
20260510020435 52 63 0.0 0.0 0.00 0.00 0.00 94 1010.0
20260510015934 53 63 0.0 0.0 0.00 0.00 0.00 94 1009.9
20260510015437 53 63 0.0 0.0 0.00 0.00 0.00 94 1010.0
20260510014937 53 63 0.0 0.0 0.00 0.00 0.00 94 1009.9
20260510014437 53 63 0.0 0.0 0.00 0.00 0.00 94 1009.9
20260510013940 53 63 0.0 0.0 0.00 0.00 0.00 94 1010.0
20260510013437 53 63 0.0 0.0 0.00 0.00 0.00 93 1010.1
20260510012935 53 63 0.0 0.0 0.00 0.00 0.00 93 1010.0
20260510012435 54 63 0.0 0.0 0.00 0.00 0.00 93 1010.0
20260510011936 54 63 0.0 0.0 0.00 0.00 0.00 93 1010.0
20260510011435 54 63 0.0 0.0 0.00 0.00 0.00 93 1009.9
20260510010934 54 63 0.0 0.0 0.00 0.00 0.00 93 1009.7
20260510010440 54 63 0.0 0.0 0.00 0.00 0.00 93 1009.6
20260510005935 54 63 0.0 0.0 0.00 0.00 0.00 93 1009.5
20260510005435 54 63 0.0 0.0 0.00 0.00 0.00 93 1009.6
20260510004939 54 63 0.0 0.0 0.00 0.00 0.00 93 1009.6
20260510004435 54 63 0.0 0.0 0.00 0.00 0.00 93 1009.6
20260510003938 55 63 0.0 0.0 0.00 0.00 0.00 92 1009.7
20260510003440 55 63 0.0 0.0 0.00 0.00 0.00 93 1009.6
20260510002934 55 63 0.0 0.0 0.00 0.00 0.00 93 1009.5
20260510002435 55 63 0.0 1.0 0.00 0.00 0.00 92 1009.5
20260510001934 55 63 0.0 1.0 0.00 0.00 0.00 92 1009.5
20260510001437 56 63 0.0 1.0 0.00 0.00 0.00 92 1009.4
20260510000940 56 63 0.0 0.0 0.00 0.00 0.00 92 1009.4
20260510000440 56 63 0.0 0.0 0.00 0.00 0.00 92 1009.5
20260509235934 56 63 0.0 0.0 0.00 0.00 0.00 91 1009.5
20260509235440 57 63 0.0 0.0 0.00 0.00 0.00 91 1009.5
20260509234934 57 63 0.0 1.0 0.00 0.00 0.00 91 1009.4
20260509234435 57 63 0.0 2.0 0.00 0.00 0.00 90 1009.4
20260509233940 58 82 0.0 1.0 0.00 0.00 0.00 90 1009.5
20260509233434 58 82 0.0 3.0 0.00 0.00 0.00 90 1009.4
20260509232940 58 106 0.0 2.0 0.00 0.00 0.00 89 1009.4
20260509232435 58 77 0.0 2.0 0.00 0.00 0.00 90 1009.3
20260509231940 58 77 1.0 1.0 0.00 0.00 0.00 89 1009.3
20260509231437 58 77 0.0 1.0 0.00 0.00 0.00 89 1009.2
20260509230940 58 55 0.0 3.0 0.00 0.00 0.00 89 1009.2
20260509230434 58 44 1.0 2.0 0.00 0.00 0.00 90 1009.2
20260509225937 58 51 1.0 3.0 0.00 0.00 0.00 90 1009.2
20260509225434 58 27 1.0 2.0 0.00 0.00 0.00 90 1009.2
20260509224940 58 28 0.0 2.0 0.00 0.00 0.00 90 1009.2
20260509224434 58 89 0.0 2.0 0.00 0.00 0.00 90 1009.2
20260509223940 57 119 0.0 3.0 0.00 0.00 0.00 89 1009.2
20260509223441 57 109 0.0 3.0 0.00 0.00 0.00 90 1009.3
20260509222940 58 147 1.0 4.0 0.00 0.00 0.00 90 1009.3
20260509222434 57 124 0.0 1.0 0.00 0.00 0.00 90 1009.3
20260509221934 58 65 0.0 0.0 0.00 0.00 0.00 90 1009.4
20260509221437 58 53 0.0 0.0 0.00 0.00 0.00 90 1009.5
20260509220937 57 51 0.0 1.0 0.00 0.00 0.00 89 1009.5
20260509220435 57 115 0.0 2.0 0.00 0.00 0.00 89 1009.4
20260509215937 57 61 0.0 3.0 0.00 0.00 0.00 89 1009.5
20260509215437 57 139 3.0 2.0 0.00 0.00 0.00 89 1009.7
20260509214934 58 95 0.0 1.0 0.00 0.00 0.00 90 1009.9
20260509214440 57 95 0.0 2.0 0.00 0.00 0.00 89 1010.0
20260509213937 57 95 0.0 2.0 0.00 0.00 0.00 89 1010.0
20260509213437 57 56 0.0 3.0 0.00 0.00 0.00 88 1010.0
20260509212934 57 98 0.0 2.0 0.00 0.00 0.00 86 1009.8
20260509212443 58 317 3.0 2.0 0.00 0.00 0.00 84 1010.0
20260509211935 59 68 1.0 3.0 0.00 0.00 0.00 82 1009.9
20260509211434 59 355 3.0 4.0 0.00 0.00 0.00 79 1010.4
20260509210934 59 323 4.0 4.0 0.00 0.00 0.00 78 1009.8
20260509210434 60 99 4.0 3.0 0.00 0.00 0.00 78 1009.6
20260509205937 60 342 3.0 5.0 0.00 0.00 0.00 77 1009.7
20260509205434 60 340 1.0 7.0 0.00 0.00 0.00 77 1009.7
20260509204934 60 327 6.0 5.0 0.00 0.00 0.00 76 1009.7
20260509204434 61 250 6.0 9.0 0.00 0.00 0.00 76 1009.6
20260509203937 60 342 6.0 8.0 0.00 0.00 0.00 76 1009.4
20260509203437 61 321 3.0 11.0 0.00 0.00 0.00 75 1009.3
20260509202934 61 40 1.0 5.0 0.00 0.00 0.00 73 1009.3
20260509202440 61 241 1.0 9.0 0.00 0.00 0.00 73 1009.4
20260509201934 61 298 4.0 6.0 0.00 0.00 0.00 77 1009.4
20260509201437 60 48 4.0 10.0 0.00 0.00 0.00 75 1009.4
20260509200937 61 44 4.0 5.0 0.00 0.00 0.00 75 1009.4
20260509200437 60 96 6.0 11.0 0.00 0.00 0.00 78 1009.4
20260509195935 61 325 6.0 8.0 0.00 0.00 0.00 81 1009.3
20260509195434 60 338 7.0 9.0 0.00 0.00 0.00 79 1009.4
20260509194937 61 250 0.0 9.0 0.00 0.00 0.00 77 1009.4
20260509194434 61 269 3.0 9.0 0.00 0.00 0.00 76 1009.5
20260509193934 61 292 6.0 14.0 0.00 0.00 0.00 75 1009.8
20260509193440 61 256 3.0 9.0 0.00 0.00 0.00 75 1009.8
20260509192934 61 250 4.0 11.0 0.00 0.00 0.00 75 1009.9
20260509192434 61 306 1.0 8.0 0.00 0.00 0.00 75 1009.8
20260509191934 61 335 7.0 9.0 0.00 0.00 0.00 74 1009.9
20260509191437 62 313 6.0 4.0 0.00 0.00 0.00 74 1010.0
20260509190934 62 340 1.0 9.0 0.00 0.00 0.00 72 1010.1
20260509190434 63 293 4.0 7.0 0.00 0.00 0.00 72 1010.0
20260509185934 62 161 7.0 7.0 0.00 0.00 0.00 71 1010.1
20260509185434 62 302 3.0 8.0 0.00 0.00 0.00 72 1010.2
20260509184934 62 319 1.0 6.0 0.00 0.00 0.00 73 1010.2
20260509184440 62 347 6.0 7.0 0.00 0.00 0.00 71 1010.2
20260509183937 62 16 3.0 7.0 0.00 0.00 0.00 69 1010.2
20260509183437 62 213 7.0 8.0 0.00 0.00 0.00 69 1010.3
20260509182937 62 351 4.0 8.0 0.00 0.00 0.00 68 1010.2
20260509182437 62 295 12.0 12.0 0.00 0.00 0.00 68 1010.1
20260509181944 63 5 1.0 5.0 0.00 0.00 0.00 67 1010.0
20260509181434 63 281 9.0 9.0 0.00 0.00 0.00 70 1010.0
20260509180937 63 333 3.0 6.0 0.00 0.00 0.00 72 1009.9
20260509180437 63 302 1.0 7.0 0.00 0.00 0.00 71 1010.0
20260509175937 63 319 3.0 4.0 0.00 0.00 0.00 71 1010.0
20260509175440 63 348 1.0 8.0 0.00 0.00 0.00 68 1010.1
20260509174934 64 346 0.0 3.0 0.00 0.00 0.00 69 1010.0
20260509174435 64 298 3.0 8.0 0.00 0.00 0.00 67 1010.0
20260509173940 64 231 6.0 10.0 0.00 0.00 0.00 66 1010.1
20260509173434 64 275 1.0 13.0 0.00 0.00 0.00 67 1010.0
20260509172937 64 302 16.0 13.0 0.00 0.00 0.00 67 1010.1
20260509172433 64 277 3.0 6.0 0.00 0.00 0.00 68 1010.2
20260509171943 64 229 4.0 9.0 0.00 0.00 0.00 65 1010.1
20260509171437 64 291 7.0 9.0 0.00 0.00 0.00 66 1010.0
20260509170940 65 306 6.0 9.0 0.00 0.00 0.00 65 1010.1
20260509170443 65 277 0.0 9.0 0.00 0.00 0.00 68 1010.1
20260509165943 65 203 7.0 9.0 0.00 0.00 0.00 68 1010.1
20260509165435 65 307 3.0 6.0 0.00 0.00 0.00 70 1010.1
20260509164935 64 290 1.0 4.0 0.00 0.00 0.00 72 1010.3
20260509164434 64 178 0.0 2.0 0.00 0.00 0.00 71 1010.3